Location: Newark
(49.8969°N, 3.3422°E)
Time: 00:18:39
(UTC+00:00)

A-11 Canister half - Pass Details

Date: 28 January 2020
Orbit: 1517 x 1683 km, 47.2° (Epoch: 20 February)

Event Time Altitude Azimuth Distance (km) Brightness Sun altitude
Rises 01:40:45 0° 267° (W) 4,709 - -52.5°
Reaches altitude 10° 01:43:49 10° 266° (W) 3,710 - -52.2°
Maximum altitude 01:53:07 77° 183° (S) 1,557 - -51.1°
Exits shadow 01:59:57 21° 101° (E) 2,929 10.6 -50.3°
Drops below altitude 10° 02:02:21 10° 100° (E) 3,684 11.2 -50.0°
Sets 02:05:23 0° 99° (E) 4,674 11.9 -49.7°
